Temperature
16 16 16 16 16 16 16 16 16 16 16 16 16 16 16 16 16 16 16 16 17 17 17 17 17 17 17 17 17 17 17 17 17 18 18 18 18 18 18 18 18 18 18
16 16 16 16 16 16 16 16 16 16 16 16 16 16 16 16 16 16 16 16 16 16 16 17 17 17 17 17 17 17 17 17 17 17 18 18 18 18 18 18 18 18 18
16 16 16 16 16 16 16 15 16 16 16 16 16 16 16 16 16 16 16 16 16 16 16 16 16 17 17 17 17 17 17 17 17 17 17 17 17 17 18 18 18 17 18
16 16 16 15 15 15 15 15 15 15 15 15 16 16 16 16 16 16 16 16 16 16 16 16 16 16 16 16 17 17 17 17 17 17 17 17 17 17 17 17 17 17 17
16 16 15 15 15 15 15 15 15 15 15 15 16 16 16 16 16 16 16 16 16 16 16 16 16 16 16 16 16 16 17 17 17 17 17 17 17 17 17 17 17 17 17
16 15 15 15 15 15 15 15 15 15 15 15 15 16 16 16 16 16 16 16 16 16 16 16 16 16 16 16 16 16 16 17 17 17 17 17 17 17 17 17 17 17 17
15 15 15 15 15 15 15 15 15 15 15 15 15 16 16 16 16 16 16 16 16 16 16 15 15 15 16 16 16 16 16 16 16 16 16 16 17 17 17 17 17 17 17
15 15 15 15 15 14 14 14 14 14 14 15 15 15 15 16 16 16 16 16 15 15 15 15 15 15 15 15 16 16 16 16 16 16 16 16 16 16 17 17 17 17 17
15 15 15 15 15 14 14 14 14 14 14 14 14 14 14 15 15 16 16 15 15 15 15 15 15 15 15 15 15 15 16 16 16 16 16 16 16 16 16 17 17 17 17
15 15 15 15 15 14 14 14 14 14 14 14 14 14 14 14 14 15 15 15 15 15 15 15 15 15 15 15 15 15 15 15 16 16 16 16 16 16 16 16 17 17 17
15 15 15 15 15 14 14 14 14 14 14 14 14 14 14 14 14 14 14 14 15 15 15 15 15 15 15 15 15 15 15 15 16 16 16 16 16 16 16 16 16 17 17
15 15 15 15 15 14 14 14 14 13 13 13 13 13 13 13 14 14 14 14 14 15 15 15 15 15 15 15 15 15 15 15 15 15 15 16 16 16 16 16 16 16 16
15 15 15 15 14 14 14 14 14 13 13 13 13 13 13 13 13 13 13 13 14 14 14 14 14 14 14 14 14 15 15 15 15 15 15 15 15 16 16 16 16 16 16
15 15 14 14 14 14 14 14 13 13 13 13 13 13 13 13 13 13 13 13 13 13 14 14 14 14 14 14 14 14 14 15 15 15 15 15 15 16 16 16 16 16 16
15 14 14 14 14 14 14 13 13 13 13 13 13 13 13 13 13 12 13 13 13 12 13 13 13 13 14 14 14 14 14 14 14 15 15 15 15 15 15 16 16 16 16
14 14 14 14 14 14 13 13 13 13 13 12 12 12 12 12 12 12 12 12 12 12 12 13 13 13 13 13 13 13 14 14 14 14 14 15 15 15 15 15 15 15 15
14 14 14 14 13 13 13 13 13 12 12 12 12 12 12 12 12 12 12 12 12 12 12 12 12 13 13 13 13 13 13 13 14 14 14 14 14 15 15 15 15 15 15
14 14 14 13 13 13 13 12 12 12 12 12 12 12 12 12 12 12 12 12 12 12 12 12 12 12 12 12 12 13 13 13 13 13 14 14 14 14 14 15 15 15 15
14 14 13 13 13 12 12 12 12 12 12 12 12 12 11 11 11 11 11 11 11 11 11 11 11 12 12 12 12 12 12 13 13 13 13 13 14 14 14 14 14 14 14
13 13 13 13 13 12 12 12 12 12 12 11 11 11 11 11 11 11 11 11 11 11 11 11 11 11 11 11 11 12 12 12 12 13 13 13 13 13 14 14 14 14 14
13 13 13 13 12 12 12 12 12 12 11 11 11 11 11 11 11 11 11 11 11 11 11 11 11 11 11 11 11 11 11 11 12 12 12 12 12 13 13 13 13 13 13
13 13 12 12 12 12 12 12 12 11 11 11 11 11 11 11 11 11 11 10 10 10 10 10 10 10 10 10 10 11 11 11 11 11 11 12 12 12 12 13 13 13 13
13 12 12 12 12 12 12 11 11 11 11 11 11 10 10 10 10 10 10 10 10 10 10 10 10 10 10 10 10 10 10 10 10 11 11 11 11 11 12 12 12 12 13
12 12 12 12 12 11 11 11 11 11 11 11 10 10 10 10 10 10 10 10 10 10 10 10 10 10 10 10 10 10 10 10 10 10 10 10 10 11 11 11 12 12 12
12 12 12 12 11 11 11 11 11 11 10 10 10 10 10 10 10 10 10 10 10 10 9 9 9 9 9 9 9 9 9 9 9 10 10 10 10 10 10 10 11 11 11
12 12 12 11 11 11 11 11 10 10 10 10 10 10 10 10 10 9 9 9 9 9 9 9 9 9 9 9 9 9 9 9 9 9 9 9 9 9 9 9 10 10 10
Wind_Speed
3 4 3 5 6 7 5 4 4 4 4 5 6 5 5 5 4 3 5 6 5 3 2 2 2 3 4 4 5 5 6 5 3 3 3 4 4 5 7 8 10 10 11
5 4 4 4 5 6 6 6 5 4 3 3 3 4 4 4 5 2 3 5 5 4 3 1 2 2 3 4 4 5 5 5 5 4 3 4 5 6 7 8 10 10 10
8 6 4 4 5 9 9 6 6 5 4 5 5 4 3 3 3 3 2 2 4 5 4 3 2 2 2 3 3 4 4 5 5 4 4 5 5 6 7 8 9 9 9
9 6 3 4 7 9 6 4 5 5 5 5 4 4 3 2 3 3 2 2 1 2 5 5 3 2 2 2 3 3 3 3 4 4 4 5 5 6 7 8 9 8 8
11 7 4 5 8 5 4 6 5 4 5 5 3 2 2 2 3 3 3 4 4 3 3 4 4 3 2 1 2 2 2 2 3 4 4 4 5 6 7 7 8 8 8
11 9 5 6 7 4 5 5 6 5 4 5 5 3 2 1 1 2 3 3 4 5 4 3 3 2 2 1 1 2 2 2 2 2 3 3 4 6 6 6 6 6 7
9 7 5 4 4 4 5 6 5 6 5 5 4 4 3 2 3 2 2 2 3 5 5 3 1 2 3 2 1 1 1 1 2 2 1 2 4 6 6 6 6 6 6
9 8 5 4 3 3 5 5 5 4 5 5 4 3 3 4 5 3 2 3 3 3 4 5 4 3 3 4 2 1 1 1 1 1 1 3 5 6 6 6 6 5 6
6 7 6 5 4 3 4 4 5 5 4 5 4 3 3 3 4 4 4 4 3 3 3 4 5 5 5 4 3 1 0 0 1 1 0 3 5 5 6 6 6 6 7
6 7 6 6 4 4 4 5 5 4 4 4 4 3 2 1 2 3 4 4 4 3 3 3 4 6 6 5 5 3 2 1 1 1 1 2 3 4 5 6 6 6 7
5 6 7 5 4 3 4 5 5 5 4 4 3 4 4 3 3 2 3 5 4 3 3 2 2 3 4 4 4 3 1 1 1 1 2 2 3 4 5 6 7 7 8
2 4 5 5 4 4 4 4 4 4 4 4 4 3 3 3 4 3 3 4 4 4 3 2 1 2 3 4 4 2 1 1 1 2 2 3 3 4 4 5 6 8 9
2 3 4 3 3 4 5 4 4 4 4 4 4 3 3 3 3 2 3 3 4 4 4 2 1 2 4 3 3 2 1 2 2 3 4 4 4 5 5 5 6 7 8
2 2 2 3 4 5 5 4 3 4 4 4 5 4 3 3 3 2 2 2 4 4 4 4 3 2 3 3 2 2 3 3 4 4 4 5 6 6 6 6 7 7 8
2 3 2 2 3 3 4 4 3 4 4 4 4 5 4 3 3 3 2 1 1 3 4 4 4 3 4 4 3 3 3 3 4 4 5 5 6 7 7 7 7 8 8
2 2 3 3 3 3 3 3 3 4 4 3 2 3 3 3 4 4 3 2 1 1 2 3 4 4 4 6 7 6 5 4 4 5 6 6 7 8 8 7 7 8 8
1 2 2 3 3 3 3 3 3 4 4 5 4 3 3 4 3 4 3 3 2 2 2 4 4 5 5 5 5 6 6 4 5 5 6 6 7 8 8 8 9 8 8
2 3 3 3 4 4 4 4 4 4 3 4 5 5 4 4 4 3 3 4 3 3 2 5 5 5 5 5 4 4 6 6 5 5 6 6 7 7 8 8 8 8 8
2 3 3 3 4 4 4 4 5 5 4 4 4 4 4 5 5 4 3 4 4 4 3 3 5 4 4 4 4 4 5 5 6 5 5 5 7 7 7 7 8 8 8
3 3 3 3 3 3 4 5 5 6 5 4 4 3 3 3 3 4 4 4 4 5 5 4 4 4 3 4 3 3 4 4 5 6 5 5 6 7 7 7 7 8 8
2 3 3 3 4 3 5 6 7 7 6 5 4 3 2 2 2 3 3 3 4 4 4 4 4 4 4 3 3 3 4 4 4 3 4 4 4 4 5 7 8 8 8
1 2 2 3 3 3 5 7 7 7 6 5 4 4 3 1 3 5 5 5 5 5 4 4 4 4 5 4 3 4 3 4 4 3 4 5 3 4 4 5 7 7 7
0 1 1 2 2 2 4 7 9 7 6 5 5 4 5 4 4 4 6 7 7 9 8 5 5 5 5 5 4 5 4 4 5 4 4 5 4 4 4 7 8 7 7
1 1 1 1 0 1 3 5 8 6 6 5 4 3 3 3 5 6 6 6 5 6 6 5 4 5 5 5 4 5 5 5 4 4 3 4 4 4 4 5 7 6 6
2 2 2 2 2 1 2 4 6 5 5 5 4 3 3 3 6 8 6 6 6 6 8 9 10 11 12 12 9 3 3 3 4 4 3 3 4 4 4 4 5 5 5
3 3 3 3 3 2 3 3 4 3 5 5 4 2 3 3 5 7 5 6 6 7 7 8 8 10 9 9 10 5 4 4 3 4 3 2 3 4 4 3 2 3 5
Wind_Direction
24 7 43 17 11 12 10 347 349 359 357 356 357 3 357 358 11 66 114 128 131 128 110 64 30 19 12 22 26 25 28 44 60 82 120 140 138 140 145 148 147 145 146
36 15 21 20 15 7 4 359 1 354 345 346 356 353 352 349 1 27 122 140 152 157 148 111 54 33 17 19 22 21 26 41 53 67 111 134 132 129 136 141 142 146 149
41 33 12 9 9 9 9 8 0 353 356 3 360 353 0 359 347 10 43 144 162 172 171 152 111 69 36 27 24 24 28 34 43 63 108 130 135 136 136 139 143 148 153
46 42 17 6 16 13 6 6 7 2 358 359 351 343 347 347 347 7 5 22 109 144 171 174 158 121 77 35 26 26 24 29 48 74 102 130 136 138 139 142 146 153 158
31 38 26 17 21 19 4 7 11 1 352 342 328 336 350 352 356 4 12 26 30 60 103 153 172 165 148 92 37 31 25 38 61 85 99 117 133 140 137 140 149 155 159
25 22 28 25 20 19 4 5 360 356 349 341 348 351 312 322 31 12 5 21 20 33 49 88 150 181 173 149 50 50 37 39 74 96 112 135 143 146 142 142 146 151 156
26 19 25 24 25 24 11 9 4 356 356 356 359 342 337 24 51 50 26 13 18 29 21 38 60 106 154 174 43 51 53 55 77 112 120 168 161 156 153 152 153 157 163
29 21 22 14 19 25 12 8 10 360 353 9 7 355 358 0 4 16 30 31 20 19 13 19 29 52 90 127 136 84 48 48 72 98 137 183 171 167 169 170 169 171 174
39 19 19 9 7 24 19 13 15 14 358 356 19 33 28 357 332 342 13 29 19 21 6 11 25 30 48 77 96 105 75 31 67 69 121 150 163 171 178 182 189 191 187
47 25 19 10 16 24 24 12 22 4 9 357 352 12 29 1 345 338 345 358 360 19 9 3 24 30 41 57 82 81 67 6 320 292 241 191 185 196 201 201 204 205 201
52 35 19 13 14 20 25 25 15 11 10 6 359 355 355 351 349 11 328 337 344 348 354 18 29 30 30 44 82 92 84 25 346 310 266 238 218 216 216 217 218 220 212
54 39 22 15 20 21 21 14 14 13 9 4 2 3 2 1 349 355 336 331 332 325 337 356 13 7 28 45 43 66 46 283 294 299 281 264 250 234 227 226 224 225 218
51 36 34 19 24 22 20 15 8 1 9 10 5 355 353 349 344 352 348 328 325 318 339 355 4 34 25 40 49 26 312 264 263 270 269 265 260 251 246 243 238 234 230
57 39 39 36 35 27 18 15 4 355 15 9 3 2 350 343 352 355 346 340 331 328 347 341 345 14 18 20 17 333 306 266 261 267 254 249 253 253 251 252 250 246 244
47 28 22 44 46 39 26 10 12 4 13 6 2 4 354 344 347 337 347 350 335 326 324 334 341 342 359 358 353 314 316 295 269 260 252 249 249 249 248 248 250 248 245
33 1 20 32 35 39 40 25 7 1 359 349 357 357 348 342 341 339 337 328 319 287 300 311 319 326 342 345 348 342 331 311 289 256 253 257 255 251 249 245 247 252 252
37 27 30 28 30 27 40 31 3 4 355 349 355 2 351 347 339 337 338 334 330 324 299 302 318 328 338 336 339 342 334 318 306 280 267 269 266 260 253 244 240 242 244
30 20 37 31 24 20 23 19 357 360 354 350 347 351 348 352 349 338 335 333 330 323 318 310 315 322 324 321 326 332 339 335 322 298 284 277 279 280 260 245 236 234 235
29 26 29 26 24 20 16 7 357 351 350 347 345 348 352 359 356 343 341 340 332 331 324 310 302 309 316 323 336 333 332 333 331 314 299 293 292 294 280 254 240 236 236
13 12 19 23 24 23 21 7 2 347 339 336 332 334 353 12 360 346 342 343 339 332 319 312 306 308 307 313 341 334 329 328 328 327 327 309 297 296 291 276 258 248 240
7 15 16 19 13 18 20 15 354 336 333 328 328 337 348 9 349 328 326 327 331 317 314 317 313 315 316 330 327 317 322 318 318 324 336 329 319 308 298 285 268 257 247
10 16 9 15 8 13 18 10 353 334 326 321 323 332 328 330 317 316 313 306 297 294 298 301 309 311 310 313 318 322 323 328 317 318 334 318 318 309 305 288 273 263 254
153 20 341 355 24 33 1 351 344 329 315 317 323 329 330 350 355 334 318 309 306 298 285 284 285 290 298 304 315 316 309 302 290 286 311 303 304 299 302 302 293 274 258
176 192 265 286 311 310 337 339 334 318 304 306 315 328 334 0 4 360 340 330 311 304 290 281 273 278 288 287 280 281 282 293 293 296 294 291 300 298 303 305 302 287 275
200 227 240 249 249 237 301 322 329 309 303 308 315 336 357 20 354 351 340 326 319 310 308 303 295 290 288 286 281 285 292 295 295 294 292 280 299 310 304 295 293 292 287
208 223 238 245 248 221 243 286 314 305 310 313 315 329 359 344 334 340 333 323 317 309 311 310 303 296 290 287 283 255 237 252 276 286 288 308 302 318 310 293 299 301 289
Height
1552 1551 1550 1549 1548 1547 1545 1544 1544 1543 1542 1541 1541 1541 1541 1541 1541 1540 1540 1540 1540 1539 1539 1538 1538 1538 1537 1537 1536 1534 1532 1529 1529 1530 1532 1535 1537 1538 1540 1542 1545 1548 1551
1553 1552 1551 1550 1549 1547 1546 1545 1544 1543 1543 1542 1541 1541 1540 1540 1540 1540 1540 1539 1539 1539 1539 1539 1538 1537 1537 1537 1536 1535 1533 1531 1530 1531 1532 1534 1536 1538 1539 1542 1545 1548 1552
1554 1553 1552 1551 1549 1548 1547 1545 1544 1544 1543 1542 1542 1541 1541 1540 1540 1540 1540 1540 1539 1539 1539 1539 1538 1538 1537 1537 1536 1535 1534 1533 1532 1532 1533 1535 1537 1539 1541 1543 1546 1549 1552
1555 1554 1552 1551 1550 1548 1547 1546 1545 1544 1543 1542 1542 1541 1541 1540 1540 1540 1540 1540 1540 1539 1539 1539 1538 1538 1537 1537 1536 1536 1535 1534 1534 1533 1534 1536 1538 1540 1543 1545 1547 1550 1553
1556 1555 1553 1552 1551 1549 1548 1547 1545 1544 1543 1542 1542 1541 1541 1541 1540 1541 1541 1540 1540 1540 1539 1539 1538 1538 1537 1537 1536 1536 1536 1535 1535 1535 1535 1537 1539 1541 1543 1545 1548 1550 1553
1556 1555 1554 1553 1551 1550 1549 1547 1546 1545 1544 1543 1542 1541 1541 1541 1541 1541 1541 1541 1540 1540 1539 1539 1538 1538 1537 1537 1536 1536 1536 1536 1536 1536 1537 1538 1539 1541 1543 1546 1548 1551 1553
1557 1556 1555 1554 1552 1551 1549 1548 1547 1546 1545 1544 1543 1542 1542 1542 1542 1541 1541 1541 1541 1540 1540 1539 1539 1538 1537 1537 1536 1536 1536 1536 1536 1536 1536 1537 1538 1541 1543 1545 1548 1550 1552
1557 1557 1555 1554 1553 1552 1550 1549 1548 1547 1546 1545 1544 1543 1543 1544 1542 1542 1542 1541 1541 1541 1540 1539 1539 1538 1538 1537 1536 1536 1536 1536 1535 1535 1534 1533 1536 1539 1543 1545 1547 1549 1551
1558 1557 1556 1555 1554 1553 1551 1550 1549 1548 1547 1547 1546 1546 1545 1545 1544 1544 1543 1542 1541 1541 1540 1540 1539 1538 1538 1537 1536 1536 1535 1535 1535 1535 1534 1533 1535 1538 1542 1544 1546 1548 1549
1558 1557 1556 1555 1554 1553 1552 1551 1550 1549 1548 1547 1547 1547 1547 1546 1545 1544 1544 1543 1542 1541 1540 1539 1539 1538 1537 1537 1536 1535 1535 1535 1535 1535 1535 1535 1536 1538 1541 1542 1545 1546 1547
1559 1558 1557 1556 1555 1554 1553 1552 1550 1549 1549 1548 1547 1547 1547 1546 1546 1545 1543 1543 1542 1541 1540 1539 1538 1538 1537 1536 1536 1535 1535 1534 1534 1534 1535 1535 1536 1538 1539 1541 1543 1544 1546
1559 1558 1557 1556 1555 1554 1553 1552 1551 1550 1549 1548 1548 1547 1547 1546 1545 1545 1544 1542 1541 1541 1540 1539 1538 1537 1537 1536 1535 1535 1534 1534 1534 1534 1534 1535 1536 1537 1538 1539 1540 1542 1543
1559 1558 1557 1556 1555 1554 1553 1552 1551 1550 1549 1548 1548 1547 1546 1546 1545 1544 1543 1542 1541 1540 1539 1539 1538 1537 1536 1535 1534 1534 1533 1533 1533 1533 1533 1533 1534 1535 1536 1537 1538 1539 1541
1559 1558 1557 1556 1555 1554 1553 1552 1551 1550 1549 1548 1547 1547 1546 1545 1544 1544 1543 1542 1540 1539 1539 1538 1537 1537 1536 1535 1534 1533 1532 1531 1531 1531 1531 1531 1532 1532 1533 1534 1536 1537 1538
1559 1558 1557 1556 1555 1554 1552 1551 1550 1549 1549 1548 1547 1546 1545 1544 1543 1543 1542 1541 1541 1539 1538 1537 1537 1536 1535 1533 1532 1531 1530 1530 1529 1529 1529 1529 1529 1529 1530 1531 1532 1533 1535
1558 1557 1557 1556 1555 1553 1552 1551 1550 1549 1548 1547 1546 1545 1543 1542 1542 1541 1540 1540 1539 1539 1537 1536 1536 1535 1533 1532 1531 1530 1529 1528 1527 1527 1527 1526 1526 1526 1526 1527 1528 1529 1531
1557 1557 1556 1555 1554 1553 1552 1550 1549 1548 1547 1546 1545 1544 1542 1541 1540 1539 1539 1538 1537 1537 1536 1535 1534 1533 1531 1530 1529 1528 1527 1526 1525 1524 1524 1523 1522 1522 1521 1522 1523 1525 1526
1556 1556 1555 1554 1553 1552 1551 1550 1549 1548 1547 1545 1544 1543 1541 1540 1539 1538 1537 1536 1536 1535 1535 1533 1531 1531 1530 1528 1527 1526 1525 1524 1522 1521 1521 1520 1519 1517 1516 1516 1518 1520 1522
1555 1555 1554 1553 1552 1551 1550 1549 1548 1547 1546 1544 1543 1542 1540 1539 1537 1537 1536 1535 1534 1533 1532 1531 1529 1529 1527 1526 1525 1524 1522 1521 1520 1519 1518 1517 1516 1514 1513 1513 1514 1517 1519
1553 1553 1552 1551 1550 1549 1548 1547 1546 1545 1544 1543 1542 1540 1539 1537 1536 1535 1534 1533 1532 1531 1530 1529 1527 1526 1525 1524 1523 1521 1519 1519 1518 1516 1516 1515 1513 1512 1511 1511 1512 1514 1515
1551 1551 1550 1549 1548 1547 1546 1545 1544 1543 1542 1541 1540 1539 1538 1536 1535 1534 1532 1531 1530 1529 1528 1526 1525 1524 1523 1522 1520 1519 1517 1516 1515 1514 1513 1512 1510 1509 1509 1509 1509 1510 1511
1549 1548 1548 1547 1546 1545 1544 1543 1542 1541 1540 1539 1538 1537 1536 1534 1533 1532 1530 1529 1528 1527 1525 1524 1523 1522 1520 1519 1518 1517 1515 1513 1511 1511 1510 1508 1508 1506 1506 1506 1506 1507 1508
1546 1546 1546 1545 1544 1543 1542 1541 1540 1539 1538 1537 1536 1535 1534 1532 1531 1530 1528 1527 1526 1524 1524 1522 1520 1519 1518 1517 1515 1514 1512 1511 1509 1508 1507 1505 1504 1503 1503 1502 1502 1503 1503
1543 1543 1543 1542 1542 1541 1540 1539 1538 1537 1536 1535 1534 1532 1531 1530 1528 1527 1525 1523 1522 1521 1520 1519 1518 1516 1515 1514 1512 1511 1509 1507 1506 1505 1505 1502 1501 1500 1499 1498 1498 1498 1499
1541 1541 1540 1540 1539 1538 1537 1537 1535 1534 1533 1532 1531 1530 1528 1527 1525 1524 1522 1520 1518 1517 1516 1515 1514 1512 1511 1510 1509 1507 1505 1504 1502 1501 1501 1500 1498 1496 1495 1494 1494 1494 1494
1537 1537 1537 1537 1536 1535 1535 1534 1533 1531 1530 1529 1528 1527 1525 1524 1522 1520 1519 1516 1514 1513 1511 1510 1509 1507 1506 1505 1504 1503 1502 1500 1498 1497 1497 1496 1494 1492 1489 1489 1489 1489 1489